Погода в Рязанах

Россия / Омская область     56°34′16″N   75°12′56″E
темп.,
°C
ветер,
м/с
пор.,
м/с
влажн.,
%
обл.,
%
осадки,
мм/ч
давл.,
гПа
погр.,
м
16 апреля, пт
пт1600:00+6юз3119448 0.0 1016200
03:00+7зюз3129675 0.0 1014271
06:00+6зюз311969 0.0 1013229
09:00+8з3797100 0.0 1012266
12:00+8ссз4994100 0.1 1014599
15:00+5с488899 0.4 1018867
18:00+5ссз387467 0.7 10201426
21:00+2с4107723 0.2 1023749
17 апреля, сб
сб1700:00−2с38845 0.2 1025494
03:00−3ссв36845 0.0 1026490
06:00−4с138297 0.0 1027393
09:00−2зсз1263100 0.0 1027663
12:00+1з24505 0.0 10261048
15:00+4зюз354140 0.0 10241325
18:00+4зюз364886 0.0 10221501
21:00+1ююз3970100 0.0 1020233
18 апреля, вс
вс1800:00+2юз41268100 0.0 1017432
03:00+2юз51280100 0.1 1013833
06:00+2юз41180100 0.3 1010647
09:00+2юз51295100 0.8 1007688
12:00+2зюз41097100 3.0 1004680
15:00+1сз5992100 2.1 1005751
18:00−4с81488100 3.4 10121123
21:00−6с7126971 0.3 10181297
19 апреля, пн
пн1900:00−9ссз6117375 0.3 10231029
03:00−10ссз51073100 0.0 10261015
06:00−10ссз597299 0.1 10281090
09:00−9ссз5759100 0.1 10311435
12:00−6ссз5750100 0.1 10321763
15:00−5ссз4753100 0.0 10322084
18:00−4ссз4650100 0.1 10321772
21:00−7сз267222 0.0 1034171
20 апреля, вт
вт2000:00−7зсз27805 0.0 1034169
03:00−8з26865 0.0 1034131
06:00−8зюз288445 0.0 1033195
09:00−3зюз5953100 0.0 10311055
12:000зюз61041100 0.0 10281257
15:00+2зюз71443100 0.0 10241612
18:00+2з61459100 0.1 10221430
21:00+2з51361100 0.1 10191184